Location: Tyumen
(57.1527°N, 65.5323°E)
Time: 07:02:11
(UTC+05:00)

ISS - Pass Details

Date: 02 December 2024
Orbit: 411 x 421 km, 51.6° (Epoch: 03 December)

Event Time Altitude Azimuth Distance (km) Brightness Sun altitude
Rises 17:01:14 0° 269° (W) 2,374 1.3 -7.5°
Reaches altitude 10° 17:03:41 10° 252° (WSW) 1,508 0.7 -7.8°
Maximum altitude 17:06:16 20° 202° (SSW) 1,026 -1.1 -8.1°
Drops below altitude 10° 17:08:50 10° 152° (SSE) 1,504 -0.9 -8.4°
Sets 17:11:16 0° 136° (SE) 2,366 -0.1 -8.7°
